Temperature
14 14 14 14 14 14 14 14 14 14 15 15 16 16 16 16 16 16 16 16 16 15 15 15 15 15 16 16 16 16 17 17 17 17 17 17 17 17
14 14 14 14 14 14 14 14 14 14 14 14 15 15 15 15 15 15 15 14 14 14 14 14 14 14 15 15 15 16 16 16 16 16 17 17 16 16
14 13 13 13 14 14 14 14 14 14 14 14 14 14 14 14 14 14 14 13 13 13 13 13 13 14 14 14 14 14 15 15 15 15 16 16 16 15
13 13 13 13 13 14 14 14 14 14 14 13 13 13 13 13 13 13 13 12 12 12 12 12 13 13 13 13 13 13 14 14 14 14 14 14 15 15
13 13 13 13 13 13 13 13 13 13 13 13 13 13 12 12 12 12 12 12 12 11 11 12 12 12 12 12 12 13 13 13 13 13 13 13 14 14
13 13 12 12 12 12 12 13 13 13 13 12 12 12 12 12 12 11 11 11 11 11 11 11 11 11 11 12 12 12 12 12 12 13 13 13 13 13
12 12 12 12 12 12 12 12 12 12 12 12 12 11 11 11 11 11 11 10 10 10 10 10 11 11 11 11 11 11 12 12 12 12 12 12 12 12
12 12 12 12 11 11 11 12 12 12 12 12 11 11 11 11 11 11 11 10 10 10 10 10 10 10 10 11 11 11 11 11 11 11 12 12 12 12
12 12 11 11 11 11 11 11 11 11 11 12 11 11 11 11 11 11 11 11 11 10 10 10 10 10 10 10 10 10 11 11 11 11 11 11 11 11
12 11 11 11 11 11 11 11 11 11 11 11 11 11 11 11 11 11 11 11 11 10 11 10 10 10 10 10 10 10 10 10 10 10 10 10 10 10
11 11 11 11 11 11 11 11 11 10 11 11 11 11 11 11 11 11 11 11 11 10 11 10 10 10 9 9 9 9 9 9 9 9 9 9 9 9
11 11 11 11 10 11 11 11 11 10 10 10 10 10 10 11 11 11 11 11 11 11 11 11 10 10 9 9 9 9 9 8 8 8 9 9 9 9
10 10 10 10 10 10 10 11 11 10 10 10 10 10 10 10 11 11 12 12 11 11 11 11 11 11 10 9 9 9 9 8 8 8 8 8 8 8
10 10 10 10 10 10 10 10 10 10 10 10 10 10 10 10 11 11 11 12 11 11 11 11 11 11 11 10 9 9 9 8 8 8 8 8 8 8
10 10 10 10 10 10 10 10 10 10 10 10 10 10 10 10 10 11 11 11 11 11 11 11 11 11 11 10 10 9 9 9 8 8 8 8 7 7
9 10 11 10 10 10 10 10 11 11 11 11 10 10 10 10 10 10 10 10 10 10 10 10 10 10 10 10 9 9 9 9 8 8 8 8 7 7
9 10 10 10 10 10 10 11 11 11 11 11 10 10 10 10 10 10 10 10 10 10 9 10 10 10 10 9 9 9 9 8 8 8 8 8 8 7
9 9 10 10 10 10 10 11 11 11 11 11 10 10 10 10 10 10 10 10 10 10 10 10 10 9 9 9 9 9 8 8 8 8 8 8 8 7
9 10 10 10 10 10 11 11 11 11 11 11 11 11 11 11 11 11 11 11 11 10 10 10 10 9 9 9 9 9 8 8 8 8 8 8 8 7
10 11 11 11 11 11 11 11 11 11 11 11 11 11 11 11 11 11 11 11 11 10 10 10 10 10 10 10 9 9 9 8 8 8 8 8 7 7
11 11 12 12 12 12 12 12 11 11 11 11 11 11 11 11 11 11 11 11 11 10 10 10 10 10 10 10 10 9 9 9 9 8 8 8 8 7
11 12 12 12 12 12 12 12 11 11 11 11 11 11 11 11 11 11 11 11 11 11 10 10 10 10 10 10 10 10 10 9 9 9 9 8 8 7
12 12 13 13 13 12 12 12 11 11 11 11 11 11 11 11 11 11 11 11 11 11 10 10 10 10 10 10 10 10 10 10 9 9 9 9 8 8
Wind_Speed
7 8 7 7 7 8 8 8 9 8 6 2 1 3 4 5 8 9 10 13 14 14 13 13 12 10 8 6 5 4 3 3 5 9 13 18 21 23
6 7 7 7 7 7 8 8 9 8 5 1 0 2 4 7 10 11 13 17 16 16 16 16 16 16 15 14 14 14 13 11 8 7 6 6 7 9
6 7 7 8 7 6 7 6 6 6 5 2 1 3 6 9 9 10 11 11 12 17 17 18 18 18 18 18 18 18 19 19 18 16 15 14 12 9
5 6 7 7 7 6 5 5 4 4 6 6 4 4 6 9 10 10 9 10 11 17 18 19 19 19 19 19 20 20 20 20 20 19 18 18 17 16
2 4 5 6 6 5 4 2 1 2 5 7 6 5 5 7 10 10 11 9 10 14 17 18 19 19 19 19 19 20 20 20 20 19 19 18 17 16
1 1 2 3 4 4 2 1 2 5 7 8 8 6 6 7 8 9 9 7 8 9 11 15 18 19 19 18 18 18 18 18 18 18 17 16 15 15
3 2 2 3 4 3 2 2 4 6 8 8 8 7 7 7 7 6 9 8 7 7 8 7 8 8 10 14 16 16 16 17 17 16 15 15 14 14
6 5 4 4 4 6 9 9 7 8 8 7 7 8 7 7 7 8 8 8 5 5 6 6 6 7 6 9 12 14 15 15 15 15 14 13 13 13
8 7 6 5 5 5 8 11 12 11 9 7 9 8 7 6 7 7 6 6 6 6 7 8 7 7 5 9 12 14 14 14 15 14 14 13 13 13
9 8 7 7 6 6 7 9 9 8 8 8 8 7 7 6 6 7 7 7 6 6 7 8 7 6 7 6 10 12 13 13 13 14 14 13 12 14
10 10 10 8 9 10 9 10 10 9 13 15 13 12 11 9 6 5 6 6 7 5 5 5 7 6 5 4 6 9 10 11 12 13 15 15 12 12
9 10 11 11 11 10 9 9 10 9 10 10 9 8 8 8 7 4 3 5 6 4 4 5 7 6 4 4 5 6 6 7 8 10 13 16 15 10
10 10 10 14 13 10 9 9 11 10 9 8 6 5 5 6 7 7 5 5 6 4 2 3 4 3 5 5 4 4 4 4 4 5 7 11 14 11
8 10 12 17 14 11 9 12 14 11 7 7 6 5 6 8 7 8 9 9 9 8 6 5 3 4 5 6 4 4 4 3 3 3 5 8 11 13
5 12 17 17 14 9 12 13 10 5 5 6 7 7 7 7 6 6 7 8 8 10 12 9 6 5 5 5 4 3 4 4 3 3 2 4 3 3
5 14 19 16 11 11 10 7 5 4 5 7 9 9 7 6 6 5 6 6 7 6 7 11 8 8 6 6 5 4 3 3 3 2 1 2 4 8
9 11 11 10 9 8 7 6 5 4 6 8 9 8 6 6 6 6 5 6 6 5 4 4 5 7 7 5 4 4 3 3 3 1 1 1 3 4
10 12 12 11 10 9 9 7 5 5 7 8 7 6 6 5 5 5 5 6 7 6 5 5 5 4 3 5 5 3 4 3 2 1 2 1 1 4
8 10 10 10 9 9 8 7 6 6 7 7 6 6 6 6 5 4 4 5 6 5 5 5 5 5 6 5 1 3 2 2 2 3 3 2 1 2
7 9 9 9 9 9 8 7 7 7 7 7 6 6 6 6 5 5 5 6 6 5 4 3 3 3 2 4 4 3 3 3 2 0 2 2 2 1
7 8 9 9 8 8 8 8 9 7 6 6 6 6 6 6 5 5 5 6 5 5 5 4 2 1 1 1 2 4 4 7 7 4 2 2 2 2
6 7 8 8 8 8 8 9 9 7 7 7 6 6 5 5 5 6 6 5 3 5 7 5 3 3 2 2 2 4 5 5 7 9 8 7 3 3
6 6 7 8 8 8 9 10 10 8 6 6 7 6 5 6 6 6 6 5 5 7 7 7 6 5 5 4 3 2 3 4 5 5 5 15 19 18
Wind_Direction
285 286 283 276 268 264 262 256 254 262 262 261 343 32 78 91 101 96 98 96 96 94 91 88 85 83 86 94 106 123 144 188 218 221 219 217 216 215
285 291 296 292 282 271 263 257 245 241 246 233 171 102 90 98 94 98 100 96 91 92 90 88 85 81 78 78 80 80 82 82 82 89 111 144 166 186
295 304 306 304 299 289 275 263 249 228 219 198 133 109 103 106 102 103 101 96 93 92 91 89 87 83 78 75 75 76 76 77 77 77 78 83 89 99
301 313 315 315 314 307 294 277 251 211 178 161 138 116 110 114 113 107 102 99 97 95 94 90 87 83 80 76 75 74 74 73 74 73 74 76 79 81
298 314 316 322 322 321 314 298 262 167 151 142 134 121 111 112 111 106 105 104 101 100 93 89 86 84 82 80 79 77 76 75 74 73 71 71 73 75
217 288 325 337 340 337 341 4 118 123 126 131 130 125 118 112 115 119 116 114 113 108 97 97 92 85 82 82 81 79 78 77 75 75 74 74 74 74
172 147 87 58 41 32 60 81 111 119 123 127 129 127 128 131 128 128 126 124 116 125 124 117 104 92 84 80 82 84 83 81 79 78 77 78 78 78
169 153 137 106 84 73 73 77 90 116 124 126 127 133 135 137 137 141 138 137 133 152 133 119 107 95 87 89 95 93 88 83 79 76 76 80 85 86
168 164 155 136 127 108 92 82 75 75 95 119 126 129 130 140 141 137 140 135 125 148 130 116 109 100 99 110 113 105 96 87 79 74 73 78 88 94
167 164 152 146 145 136 115 98 86 77 92 99 103 106 107 109 115 126 125 113 110 129 133 123 127 120 118 124 133 121 109 96 83 72 66 69 91 101
165 158 152 148 146 136 121 111 102 93 84 93 97 100 101 103 112 124 132 130 131 140 140 126 136 132 131 136 152 141 123 109 93 77 64 57 81 108
159 153 153 145 142 137 130 123 116 114 112 106 100 105 105 96 89 102 140 142 132 122 133 132 148 146 135 146 152 159 142 123 108 88 72 61 62 72
162 158 156 149 144 136 135 129 131 128 123 121 117 113 99 82 68 57 58 108 114 93 92 116 145 143 125 133 135 149 148 147 147 126 99 84 76 72
167 160 154 153 148 142 135 141 146 144 138 135 131 123 102 88 79 74 72 77 86 80 42 51 87 107 118 122 123 118 110 116 128 144 138 123 102 89
191 155 149 150 147 144 146 152 159 161 152 143 130 113 106 109 105 93 82 75 68 67 54 44 49 58 86 103 103 105 114 97 79 90 131 156 153 135
163 145 143 150 152 142 149 164 187 195 158 130 117 117 123 133 131 127 114 104 94 78 62 57 54 59 65 74 88 85 81 92 79 51 21 146 130 120
148 148 149 153 155 154 162 177 193 178 135 125 128 141 155 157 151 148 142 135 124 122 112 88 79 78 71 62 69 61 69 83 104 21 313 128 135 130
163 156 155 161 162 162 167 174 181 153 132 132 142 155 156 145 140 150 160 150 144 145 150 152 138 118 88 40 24 53 65 42 16 356 357 34 97 129
180 160 159 164 165 165 168 169 164 147 138 143 151 150 139 135 142 156 149 131 128 132 143 157 167 174 181 160 299 331 100 78 19 17 8 351 333 154
193 164 163 167 166 164 166 163 151 142 145 150 149 144 142 146 152 153 141 135 130 131 124 100 74 57 72 123 148 200 216 152 132 49 328 325 336 125
195 167 165 164 161 159 159 150 142 145 151 146 144 147 151 151 157 153 127 128 148 150 129 111 115 129 16 5 168 166 200 208 195 192 216 263 290 283
198 172 161 155 154 153 145 142 144 150 151 147 144 153 157 155 146 134 136 161 178 137 126 136 179 210 231 249 211 169 179 201 224 221 228 229 223 235
196 166 148 150 146 142 144 149 149 151 155 153 149 162 161 150 146 148 164 179 153 141 150 166 189 213 216 212 229 212 198 200 192 195 236 236 238 246
Height
1459 1456 1454 1452 1450 1449 1448 1447 1447 1445 1445 1445 1446 1447 1447 1448 1449 1452 1454 1456 1458 1459 1461 1462 1464 1465 1466 1467 1468 1470 1472 1475 1478 1481 1484 1486 1489 1493
1453 1451 1448 1446 1443 1442 1440 1439 1440 1440 1440 1440 1442 1444 1444 1445 1447 1449 1451 1453 1455 1457 1458 1459 1461 1461 1462 1462 1463 1464 1466 1468 1471 1474 1476 1479 1482 1485
1448 1446 1443 1440 1437 1435 1434 1433 1432 1433 1434 1436 1438 1440 1442 1443 1445 1447 1450 1452 1454 1456 1457 1459 1460 1460 1461 1461 1461 1462 1463 1464 1466 1468 1471 1473 1476 1479
1443 1441 1438 1436 1433 1430 1428 1427 1426 1427 1429 1431 1435 1437 1440 1442 1444 1447 1449 1452 1454 1456 1458 1459 1460 1460 1461 1461 1461 1462 1462 1463 1464 1466 1468 1470 1473 1475
1439 1436 1434 1431 1429 1426 1424 1422 1422 1423 1425 1428 1431 1435 1438 1441 1444 1446 1449 1452 1455 1457 1459 1460 1461 1462 1462 1463 1463 1463 1463 1464 1465 1466 1468 1469 1471 1473
1434 1432 1431 1428 1426 1423 1421 1420 1420 1420 1423 1426 1430 1434 1437 1440 1443 1446 1450 1453 1456 1458 1460 1462 1463 1464 1464 1465 1465 1466 1466 1466 1466 1467 1469 1470 1472 1474
1429 1429 1428 1426 1424 1422 1420 1419 1419 1420 1422 1425 1429 1433 1437 1440 1444 1447 1450 1454 1458 1460 1462 1464 1465 1466 1467 1468 1468 1469 1469 1469 1469 1470 1471 1472 1473 1475
1425 1425 1425 1424 1423 1422 1421 1420 1421 1421 1423 1425 1430 1433 1437 1441 1445 1449 1452 1455 1459 1463 1464 1466 1468 1469 1470 1470 1471 1471 1471 1471 1471 1472 1473 1474 1475 1476
1420 1421 1422 1422 1423 1423 1423 1422 1423 1424 1426 1428 1431 1434 1438 1442 1446 1450 1453 1457 1459 1463 1465 1467 1470 1471 1472 1473 1474 1474 1473 1473 1473 1474 1474 1475 1476 1477
1415 1417 1419 1421 1422 1423 1424 1424 1425 1427 1429 1431 1434 1437 1441 1445 1448 1452 1455 1458 1462 1465 1467 1469 1472 1473 1475 1475 1476 1476 1475 1475 1475 1475 1476 1476 1477 1477
1411 1414 1416 1419 1421 1423 1424 1425 1427 1429 1432 1435 1437 1441 1444 1448 1451 1454 1457 1460 1463 1467 1469 1470 1473 1474 1476 1477 1478 1478 1478 1478 1477 1477 1477 1478 1478 1478
1407 1411 1414 1417 1420 1423 1425 1426 1428 1431 1434 1437 1441 1444 1447 1450 1453 1456 1458 1461 1464 1467 1470 1471 1473 1475 1477 1479 1479 1480 1480 1480 1479 1479 1479 1479 1479 1479
1403 1407 1412 1416 1420 1423 1426 1428 1430 1433 1436 1439 1443 1446 1449 1452 1454 1457 1459 1462 1464 1467 1470 1472 1473 1475 1476 1479 1480 1481 1481 1481 1481 1480 1480 1480 1480 1479
1399 1404 1409 1415 1419 1423 1427 1430 1432 1435 1438 1442 1445 1448 1451 1453 1456 1458 1460 1462 1465 1468 1470 1472 1473 1475 1476 1478 1481 1482 1482 1482 1482 1481 1481 1481 1480 1479
1397 1402 1408 1414 1419 1424 1428 1431 1434 1437 1441 1444 1447 1450 1452 1454 1457 1459 1461 1464 1466 1468 1471 1472 1474 1475 1477 1479 1481 1482 1483 1483 1483 1482 1482 1481 1480 1479
1394 1402 1408 1413 1419 1424 1428 1432 1435 1438 1442 1445 1447 1450 1453 1456 1457 1460 1462 1464 1467 1469 1472 1474 1475 1477 1478 1480 1482 1483 1483 1483 1483 1483 1482 1482 1480 1479
1393 1400 1406 1413 1418 1423 1428 1432 1435 1439 1442 1444 1448 1451 1454 1457 1459 1462 1464 1466 1468 1470 1472 1475 1477 1479 1480 1481 1482 1483 1483 1483 1483 1483 1482 1482 1480 1478
1393 1399 1406 1412 1418 1423 1427 1431 1435 1439 1442 1445 1448 1452 1455 1458 1461 1463 1465 1468 1469 1471 1474 1476 1478 1479 1481 1482 1483 1482 1482 1482 1482 1482 1481 1481 1480 1478
1394 1400 1406 1412 1417 1422 1427 1431 1435 1439 1442 1446 1449 1452 1455 1458 1461 1464 1466 1469 1471 1473 1475 1476 1477 1478 1479 1480 1482 1482 1481 1481 1481 1480 1480 1479 1478 1477
1395 1401 1406 1412 1417 1422 1426 1430 1434 1438 1442 1446 1449 1453 1456 1459 1462 1464 1467 1469 1471 1473 1475 1476 1477 1478 1478 1480 1480 1481 1481 1480 1480 1479 1478 1478 1476 1475
1395 1402 1407 1412 1416 1421 1426 1430 1434 1438 1442 1446 1449 1453 1456 1459 1462 1464 1467 1469 1471 1473 1474 1475 1476 1477 1478 1479 1479 1479 1479 1479 1479 1478 1477 1475 1474 1473
1396 1402 1407 1412 1416 1421 1425 1429 1433 1438 1442 1445 1449 1452 1456 1459 1461 1464 1466 1469 1471 1472 1473 1474 1475 1477 1477 1478 1478 1478 1478 1477 1476 1476 1474 1473 1472 1469
1397 1402 1407 1412 1417 1421 1425 1429 1433 1437 1441 1445 1449 1452 1455 1458 1461 1463 1465 1468 1470 1471 1472 1474 1475 1476 1476 1477 1477 1477 1476 1475 1474 1472 1472 1470 1469 1467